Eagle, CO

8:30 PM MDT on June 28, 2017 (GMT -0600)
Eagle County Regional

Weather History for KEGE - March, 2013

Change the Weather History Date:

Monday, March 25, 2013

  Actual Average Record
Temperature  
Mean Temperature 22 °F -  
Max Temperature 37 °F 52 °F 71 °F (2012)
Min Temperature 6 °F 22 °F 5 °F (1965)
Degree Days  
Heating Degree Days 44    
Moisture  
Dew Point 3 °F    
Average Humidity 59    
Maximum Humidity 79    
Minimum Humidity 15    
Precipitation  
Precipitation 0.00 in - - ()
Sea Level Pressure  
Sea Level Pressure 30.16 in    
Wind  
Wind Speed 4 mph (ENE)    
Max Wind Speed 13 mph    
Max Gust Speed 18 mph    
Visibility 10 miles    
Events      
Averages and records for this station are not official NWS values.
T = Trace of Precipitation, MM = Missing Value Source: NWS Daily Summary

Daily Weather History Graph

Daily Weather History Graph

Search for Another Location

Airport or City:

Trip Planner

Search our weather history database for the weather conditions in past years. The results will help you decide how hot, cold, wet, or windy it might be!

Date:

Astronomy

Mar. 25, 2013 Rise Set
Actual Time 7:02 AM MDT 7:25 PM MDT
Civil Twilight 6:35 AM MDT 7:52 PM MDT
Nautical Twilight 6:04 AM MDT 8:23 PM MDT
Astronomical Twilight 5:31 AM MDT 8:56 PM MDT
Moon 5:59 PM MDT (3/25) 5:47 AM MDT (3/25)
Length of Visible Light 13h 16m
Length of Day
12h 22m
Waxing Gibbous, 97% of the Moon is Illuminated
Mar 25
Waxing Gibbous
Mar 27
Full
Apr 2
Last Quarter
Apr 10
New
Apr 18
First Quarter

Hourly Weather History & Observations

Time (MDT) Temp. Windchill Dew Point Humidity Pressure Visibility Wind Dir Wind Speed Gust Speed Precip Events Conditions
12:15 AM 12.2 °F 2.9 °F 6.8 °F 79% 30.15 in 10.0 mi East 5.8 mph - N/A   Clear
12:35 AM 12.2 °F 2.9 °F 5.0 °F 73% 30.15 in 10.0 mi East 5.8 mph - N/A   Clear
12:55 AM 12.2 °F 4.3 °F 5.0 °F 73% 30.15 in 10.0 mi ENE 4.6 mph - N/A   Clear
1:15 AM 10.4 °F 4.0 °F 5.0 °F 79% 30.15 in 10.0 mi ENE 3.5 mph - N/A   Clear
1:35 AM 10.4 °F 4.0 °F 5.0 °F 79% 30.16 in 10.0 mi ENE 3.5 mph - N/A   Clear
1:55 AM 10.4 °F 2.2 °F 3.2 °F 73% 30.15 in 10.0 mi ENE 4.6 mph - N/A   Clear
2:15 AM 10.4 °F 4.0 °F 3.2 °F 73% 30.16 in 10.0 mi East 3.5 mph - N/A   Clear
2:35 AM 10.4 °F 2.2 °F 3.2 °F 73% 30.16 in 10.0 mi ENE 4.6 mph - N/A   Clear
2:55 AM 8.6 °F 0.1 °F 3.2 °F 79% 30.16 in 10.0 mi ENE 4.6 mph - N/A   Clear
3:15 AM 8.6 °F -1.3 °F 3.2 °F 79% 30.16 in 10.0 mi East 5.8 mph - N/A   Clear
3:35 AM 8.6 °F -1.3 °F 3.2 °F 79% 30.16 in 10.0 mi ENE 5.8 mph - N/A   Clear
4:15 AM 8.6 °F 2.0 °F 3.2 °F 79% 30.16 in 10.0 mi East 3.5 mph - N/A   Clear
4:35 AM 8.6 °F 0.1 °F 1.4 °F 73% 30.17 in 10.0 mi East 4.6 mph - N/A   Clear
4:55 AM 8.6 °F 0.1 °F 1.4 °F 73% 30.17 in 10.0 mi East 4.6 mph - N/A   Clear
5:15 AM 8.6 °F 0.1 °F 1.4 °F 73% 30.17 in 10.0 mi East 4.6 mph - N/A   Clear
5:35 AM 8.6 °F - 1.4 °F 73% 30.17 in 10.0 mi Calm Calm - N/A   Clear
5:55 AM 6.8 °F - 1.4 °F 79% 30.18 in 10.0 mi Calm Calm - N/A   Clear
6:15 AM 6.8 °F - 1.4 °F 79% 30.18 in 10.0 mi Calm Calm - N/A   Clear
6:35 AM 6.8 °F -0.1 °F 1.4 °F 79% 30.19 in 10.0 mi SSE 3.5 mph - N/A   Clear
6:50 AM 6.8 °F - 1.4 °F 79% 30.19 in 10.0 mi Calm Calm - N/A   Clear
7:50 AM 6.8 °F - 1.4 °F 79% 30.22 in 10.0 mi Calm Calm - N/A   Clear
8:50 AM 10.4 °F - 1.4 °F 67% 30.23 in 10.0 mi Calm Calm - N/A   Clear
9:50 AM 14.0 °F - 1.4 °F 57% 30.23 in 10.0 mi Calm Calm - N/A   Clear
10:50 AM 21.2 °F - 3.2 °F 46% 30.22 in 10.0 mi Calm Calm - N/A   Clear
11:50 AM 23.0 °F - 3.2 °F 43% 30.20 in 10.0 mi Calm Calm - N/A   Clear
12:50 PM 28.4 °F - 3.2 °F 34% 30.17 in 10.0 mi Calm Calm - N/A   Clear
1:50 PM 32.0 °F 27.5 °F -0.4 °F 25% 30.15 in 10.0 mi North 4.6 mph - N/A   Clear
2:50 PM 33.8 °F 28.6 °F -2.2 °F 22% 30.12 in 10.0 mi NW 5.8 mph - N/A   Clear
3:50 PM 35.6 °F - -5.8 °F 17% 30.10 in 10.0 mi Calm Calm - N/A   Clear
4:50 PM 37.4 °F 32.8 °F -4.0 °F 17% 30.08 in 10.0 mi SW 5.8 mph - N/A   Clear
5:50 PM 37.4 °F 29.3 °F -7.6 °F 15% 30.08 in 10.0 mi SW 12.7 mph 18.4 mph N/A   Clear
6:50 PM 37.4 °F 32.1 °F -7.6 °F 15% 30.09 in 10.0 mi WSW 6.9 mph - N/A   Clear
7:50 PM 32.0 °F - 3.2 °F 30% 30.10 in 10.0 mi Calm Calm - N/A   Clear
8:50 PM 28.4 °F - 6.8 °F 40% 30.12 in 10.0 mi Calm Calm - N/A   Clear
9:50 PM 26.6 °F 18.2 °F 8.6 °F 47% 30.14 in 10.0 mi ENE 8.1 mph - N/A   Clear
10:50 PM 24.8 °F - 10.4 °F 54% 30.15 in 10.0 mi Calm Calm - N/A   Clear
11:15 PM 23.0 °F 15.8 °F 10.4 °F 59% 30.15 in 10.0 mi ENE 5.8 mph - N/A   Clear
11:35 PM 23.0 °F 17.0 °F 10.4 °F 59% 30.15 in 10.0 mi ENE 4.6 mph - N/A   Clear
11:55 PM 21.2 °F - 12.2 °F 68% 30.15 in 10.0 mi Calm Calm - N/A   Clear